{"data":{"norad_id":65239,"intl_designator":"2025-179E","name":"STARLINK-34964","alt_names":[],"object_type":"PAYLOAD","status":"ACTIVE","operator":null,"country":"US","launch_date":"2025-08-18","launch_site_code":"AFWTR","launch_vehicle":null,"mission":null,"orbit_class":"UNKNOWN","rcs_meters":null,"size_class":null,"mass_kg":null,"dimensions":null,"purposes":["comms"],"wikipedia_slug":null,"has_3d_model":false,"image_url":null,"decayed_at":null,"tle_current":{"epoch":"2026-09-20T06:59:27.301344Z","epoch_age_seconds":135489,"freshness":"FRESH","line1":"1 65239U 25179E   26263.29128821  .00014750  00000+0  45818-3 0  9996","line2":"2 65239  97.2860 302.6547 0003142 137.3916 222.7571 15.33450236 61281","mean_motion":15.33450236,"eccentricity":0.0003142,"inclination_deg":97.286,"raan_deg":302.6547,"arg_perigee_deg":137.3916,"mean_anomaly_deg":222.7571,"bstar":0.00045818,"rev_number":6128,"period_min":93.905884012007,"perigee_km":463.37731645428,"apogee_km":467.67787528632,"semimajor_km":6843.6645958703,"source":"CELESTRAK","updated_at":"2026-09-21T09:00:35.540306Z"}}}